Slocum OMG-1 on mission AlterECO 2 Piloting

  • Public vehicle
  • Serial Number unit_352
  • Operated by NOC on the AlterECO project

  • Deployed: 2018/03/07 16:27:00 UTC (589 days ago) by micsmart
  • Time at Sea: 1 year
  • Profiles Performed: 4295

Near Real-Time Data

 
conductivity
density
potential_density
potential_temperature
salinity
sound_velocity
temperature

Communication Log

# Updated Depth Speed Plots
1642045 2019-07-29 11:28:30 UTC (80 days ago)
1642022 2019-07-29 10:21:25 UTC (80 days ago)
1639692 2019-07-24 10:30:45 UTC (85 days ago)
1639674 2019-07-24 08:46:27 UTC (85 days ago)
1639666 2019-07-24 08:19:05 UTC (85 days ago)
1639551 2019-07-23 11:11:39 UTC (86 days ago)
1566646 2019-02-08 19:20:26 UTC (251 days ago)
1566640 2019-02-08 19:14:18 UTC (251 days ago)
1566629 2019-02-08 18:56:18 UTC (251 days ago)
1566624 2019-02-08 18:50:12 UTC (251 days ago)
1566621 2019-02-08 18:44:06 UTC (251 days ago)
1566616 2019-02-08 18:34:46 UTC (251 days ago)
1566613 2019-02-08 18:28:39 UTC (251 days ago)
1566610 2019-02-08 18:22:35 UTC (251 days ago)
1566606 2019-02-08 18:16:31 UTC (251 days ago)
1566600 2019-02-08 18:10:25 UTC (251 days ago)
1566597 2019-02-08 18:04:20 UTC (251 days ago)
1566590 2019-02-08 17:58:10 UTC (251 days ago)
1566586 2019-02-08 17:52:00 UTC (251 days ago)
1566580 2019-02-08 17:45:56 UTC (251 days ago)